contact:dominique.lefevre@mio.osupytheas.fr, maurice.libes@osupytheas.fr, didier.mallarino@osupytheas.fr
Project:EMSO http://www.emso-fr.org/EMSO-France
Depth: 2436.0 m
Title:EMSO Ligure Ouest : Data MII capteur AQUADOPP
Date,Latitude,Longitude,X_East,Y_North,Z_Up,Amplitude_X,Amplitude_Y,Amplitude_Z,Batterie,SoundSpeed,Heading,Pitch,Roll,Pressure,TIS,Speed,Direction
, degrees North, degrees East, m.s-1, m.s-1,m.s-1, 1, 1, 1, Volt, m.s-1, degree, degree, degree, dbar, degree_C, m.s-1, degree
2020-02-07T00:04:03,42.805,6.029,0.058,-0.013,-0.026,106.0,108.0,103.0,13.4,1505.2,324.9,-0.7,1.8,2470.185,13.3,0.059,102.6
2020-02-07T00:07:03,42.805,6.029,0.042,-0.04,0.001,107.0,107.0,102.0,13.4,1505.3,328.5,-0.7,1.8,2470.251,13.31,0.057,133.6
2020-02-07T00:10:03,42.805,6.029,0.047,-0.004,0.0,107.0,108.0,102.0,13.4,1505.3,323.2,-0.7,1.9,2470.265,13.31,0.047,94.9
2020-02-07T00:13:03,42.805,6.029,0.033,-0.028,-0.002,106.0,107.0,103.0,13.4,1505.3,326.5,-0.7,1.8,2470.237,13.32,0.043,130.3
2020-02-07T00:16:03,42.805,6.029,0.055,-0.016,0.005,107.0,108.0,104.0,13.4,1505.3,325.0,-0.7,1.8,2470.183,13.32,0.057,106.2
2020-02-07T00:19:03,42.805,6.029,0.042,-0.01,0.016,106.0,107.0,103.0,13.4,1505.3,323.8,-0.7,1.8,2470.219,13.32,0.043,103.4
2020-02-07T00:22:03,42.805,6.029,0.017,-0.017,-0.022,106.0,109.0,103.0,13.4,1505.3,326.7,-0.7,1.9,2470.192,13.32,0.024,135.0
2020-02-07T00:25:03,42.805,6.029,0.024,-0.016,-0.001,106.0,107.0,103.0,13.4,1505.3,325.9,-0.7,1.9,2470.235,13.32,0.028,123.7
2020-02-07T00:28:03,42.805,6.029,0.038,0.003,-0.029,107.0,108.0,103.0,13.4,1505.3,322.9,-0.7,1.8,2470.202,13.32,0.038,85.5
2020-02-07T00:31:03,42.805,6.029,0.055,-0.028,-0.021,105.0,107.0,103.0,13.3,1505.3,326.5,-0.7,1.8,2470.232,13.32,0.061,117.0
2020-02-07T00:34:03,42.805,6.029,0.033,0.012,-0.003,106.0,107.0,103.0,13.4,1505.3,327.2,-0.7,1.8,2470.213,13.32,0.035,70.0
2020-02-07T00:37:03,42.805,6.029,0.053,-0.008,-0.003,107.0,106.0,102.0,13.4,1505.3,328.3,-0.7,1.9,2470.188,13.32,0.053,98.6
2020-02-07T00:40:03,42.805,6.029,0.054,-0.015,-0.02,107.0,108.0,102.0,13.4,1505.3,324.6,-0.7,1.8,2470.196,13.32,0.056,105.5
2020-02-07T00:43:03,42.805,6.029,0.05,-0.034,-0.02,108.0,107.0,103.0,13.4,1505.3,327.4,-0.7,1.8,2470.202,13.32,0.06,124.2
2020-02-07T00:46:03,42.805,6.029,0.032,0.0,-0.022,106.0,108.0,102.0,13.4,1505.3,324.7,-0.7,1.8,2470.193,13.32,0.032,90.0
2020-02-07T00:49:02,42.805,6.029,0.053,-0.026,0.004,106.0,108.0,103.0,13.4,1505.3,323.0,-0.7,1.8,2470.19,13.32,0.059,116.1
2020-02-07T00:52:03,42.805,6.029,0.047,-0.03,0.014,106.0,107.0,103.0,13.4,1505.3,327.1,-0.7,1.8,2470.186,13.32,0.055,122.6
2020-02-07T00:55:03,42.805,6.029,0.011,-0.012,-0.009,105.0,107.0,104.0,13.4,1505.3,326.6,-0.7,1.8,2470.218,13.32,0.016,137.5
2020-02-07T00:58:03,42.805,6.029,0.023,-0.017,-0.019,106.0,108.0,103.0,13.4,1505.3,326.9,-0.7,1.8,2470.2,13.32,0.028,126.5
2020-02-07T01:04:03,42.805,6.029,0.04,-0.025,0.011,108.0,109.0,104.0,13.4,1505.2,325.2,-0.7,1.8,2470.249,13.3,0.047,122.0
2020-02-07T01:07:02,42.805,6.029,0.038,-0.027,-0.01,107.0,107.0,104.0,13.4,1505.3,326.4,-0.7,1.8,2470.233,13.31,0.046,125.4
2020-02-07T01:10:03,42.805,6.029,0.026,-0.02,0.017,107.0,109.0,103.0,13.4,1505.3,327.0,-0.7,1.8,2470.239,13.31,0.032,127.6
2020-02-07T01:13:03,42.805,6.029,0.025,-0.008,-0.013,106.0,109.0,102.0,13.4,1505.3,325.9,-0.7,1.8,2470.23,13.32,0.026,107.7
2020-02-07T01:16:03,42.805,6.029,0.042,-0.007,0.003,107.0,108.0,102.0,13.4,1505.3,327.0,-0.7,1.8,2470.232,13.32,0.042,99.5
2020-02-07T01:19:03,42.805,6.029,0.02,-0.013,-0.048,106.0,107.0,103.0,13.3,1505.3,325.0,-0.7,1.8,2470.254,13.32,0.023,123.0
2020-02-07T01:22:03,42.805,6.029,0.044,-0.038,-0.003,107.0,109.0,102.0,13.4,1505.3,324.7,-0.7,1.8,2470.2,13.32,0.058,130.8
2020-02-07T01:25:03,42.805,6.029,0.026,0.005,-0.008,106.0,107.0,103.0,13.4,1505.3,327.3,-0.7,1.9,2470.187,13.32,0.026,79.1
2020-02-07T01:28:03,42.805,6.029,0.025,-0.019,-0.035,107.0,107.0,104.0,13.4,1505.3,325.3,-0.7,1.8,2470.234,13.32,0.031,127.2
2020-02-07T01:31:03,42.805,6.029,0.03,-0.018,-0.028,107.0,109.0,104.0,13.4,1505.3,328.6,-0.7,1.8,2470.232,13.32,0.034,121.0
2020-02-07T01:34:03,42.805,6.029,0.023,-0.025,-0.016,107.0,108.0,102.0,13.4,1505.3,326.5,-0.7,1.8,2470.252,13.32,0.033,137.4
2020-02-07T01:37:03,42.805,6.029,0.044,-0.01,-0.024,107.0,108.0,103.0,13.4,1505.3,327.5,-0.7,1.8,2470.164,13.32,0.045,102.8
2020-02-07T01:43:02,42.805,6.029,0.045,-0.028,-0.037,107.0,107.0,104.0,13.4,1505.2,326.2,-0.7,1.8,2470.287,13.3,0.053,121.9
2020-02-07T01:46:03,42.805,6.029,0.037,0.001,0.003,109.0,108.0,103.0,13.4,1505.3,324.7,-0.7,1.9,2470.261,13.31,0.037,88.5
2020-02-07T01:49:03,42.805,6.029,0.018,0.004,-0.033,107.0,109.0,103.0,13.4,1505.3,328.5,-0.8,1.8,2470.273,13.32,0.018,77.5
2020-02-07T01:52:03,42.805,6.029,0.053,-0.006,0.004,108.0,107.0,103.0,13.3,1505.3,326.7,-0.7,1.8,2470.275,13.32,0.053,96.5
2020-02-07T01:55:03,42.805,6.029,0.031,-0.019,0.012,107.0,110.0,102.0,13.4,1505.3,328.1,-0.7,1.8,2470.31,13.32,0.036,121.5
2020-02-07T01:58:03,42.805,6.029,0.04,-0.017,-0.018,107.0,108.0,103.0,13.4,1505.3,324.4,-0.7,1.8,2470.249,13.32,0.043,113.0
2020-02-07T02:04:03,42.805,6.029,0.045,-0.014,0.002,106.0,107.0,103.0,13.4,1505.2,324.2,-0.7,1.8,2470.281,13.3,0.047,107.3
2020-02-07T02:07:02,42.805,6.029,0.04,-0.019,-0.028,109.0,108.0,102.0,13.4,1505.3,327.2,-0.7,1.8,2470.25,13.31,0.044,115.4
2020-02-07T02:10:03,42.805,6.029,0.027,-0.008,-0.013,106.0,107.0,102.0,13.4,1505.3,322.8,-0.7,1.9,2470.259,13.31,0.028,106.5
2020-02-07T02:13:03,42.805,6.029,0.049,-0.016,0.004,106.0,108.0,103.0,13.3,1505.3,326.4,-0.7,1.8,2470.275,13.32,0.051,108.1
2020-02-07T02:16:03,42.805,6.029,0.023,-0.002,-0.015,108.0,108.0,103.0,13.4,1505.3,326.5,-0.7,1.8,2470.26,13.32,0.023,95.0
2020-02-07T02:19:03,42.805,6.029,0.056,-0.017,0.01,106.0,109.0,102.0,13.4,1505.3,326.2,-0.7,1.8,2470.297,13.32,0.058,106.9
2020-02-07T02:22:03,42.805,6.029,0.016,-0.011,-0.006,107.0,108.0,103.0,13.4,1505.3,324.7,-0.7,1.8,2470.3,13.32,0.019,124.5
2020-02-07T02:25:03,42.805,6.029,0.029,-0.013,-0.032,106.0,108.0,101.0,13.3,1505.3,326.9,-0.7,1.9,2470.27,13.32,0.031,114.1
2020-02-07T02:28:03,42.805,6.029,0.03,-0.013,-0.009,108.0,107.0,103.0,13.4,1505.3,324.0,-0.7,1.8,2470.303,13.32,0.032,113.4
2020-02-07T02:31:03,42.805,6.029,0.04,-0.016,0.001,107.0,107.0,103.0,13.3,1505.3,327.9,-0.7,1.9,2470.29,13.32,0.043,111.8
2020-02-07T02:34:03,42.805,6.029,0.009,0.0,-0.011,106.0,107.0,103.0,13.4,1505.3,327.6,-0.7,1.8,2470.315,13.32,0.009,90.0
2020-02-07T02:37:03,42.805,6.029,0.035,-0.014,0.002,107.0,108.0,103.0,13.3,1505.3,326.8,-0.7,1.8,2470.303,13.32,0.037,111.8
2020-02-07T02:40:03,42.805,6.029,0.052,-0.013,-0.037,106.0,107.0,103.0,13.3,1505.3,325.6,-0.7,1.8,2470.283,13.32,0.053,104.0
2020-02-07T02:43:03,42.805,6.029,0.038,-0.014,-0.05,107.0,108.0,103.0,13.4,1505.3,327.2,-0.7,1.8,2470.278,13.32,0.04,110.2
2020-02-07T02:46:03,42.805,6.029,0.027,-0.012,-0.007,106.0,107.0,103.0,13.3,1505.3,327.8,-0.7,1.8,2470.261,13.32,0.029,114.0
2020-02-07T02:49:03,42.805,6.029,0.034,-0.005,-0.018,106.0,108.0,102.0,13.4,1505.3,323.7,-0.7,1.8,2470.281,13.32,0.034,98.4
2020-02-07T02:52:02,42.805,6.029,0.035,-0.001,0.001,107.0,107.0,103.0,13.4,1505.3,328.4,-0.7,1.8,2470.291,13.32,0.035,91.6
2020-02-07T02:55:03,42.805,6.029,0.029,-0.026,-0.005,106.0,108.0,103.0,13.3,1505.3,327.0,-0.7,1.8,2470.291,13.32,0.038,131.9
2020-02-07T02:58:03,42.805,6.029,0.027,-0.024,0.0,106.0,108.0,103.0,13.3,1505.3,324.5,-0.7,1.8,2470.302,13.32,0.036,131.6
2020-02-07T03:04:03,42.805,6.029,0.037,-0.017,-0.016,106.0,108.0,102.0,13.4,1505.2,328.3,-0.7,1.8,2470.341,13.3,0.04,114.7
2020-02-07T03:07:02,42.805,6.029,0.03,-0.013,0.007,106.0,107.0,102.0,13.4,1505.3,324.2,-0.7,1.8,2470.357,13.31,0.032,113.4
2020-02-07T03:10:03,42.805,6.029,0.018,-0.051,-0.008,107.0,109.0,103.0,13.4,1505.3,325.9,-0.7,1.8,2470.335,13.31,0.054,160.6
2020-02-07T03:13:03,42.805,6.029,0.035,0.0,-0.017,106.0,107.0,103.0,13.4,1505.3,323.3,-0.7,1.9,2470.325,13.32,0.035,90.0
2020-02-07T03:16:03,42.805,6.029,0.026,-0.017,-0.028,107.0,109.0,102.0,13.3,1505.3,325.9,-0.7,1.8,2470.325,13.32,0.031,123.2
2020-02-07T03:19:03,42.805,6.029,0.041,-0.028,-0.008,106.0,109.0,102.0,13.4,1505.3,327.5,-0.7,1.8,2470.379,13.32,0.049,124.3
2020-02-07T03:22:03,42.805,6.029,0.023,-0.005,-0.034,107.0,107.0,102.0,13.4,1505.3,323.8,-0.7,1.9,2470.358,13.32,0.023,102.3
2020-02-07T03:25:03,42.805,6.029,0.018,-0.015,-0.007,104.0,107.0,102.0,13.3,1505.3,324.0,-0.7,1.8,2470.368,13.32,0.023,129.8
2020-02-07T03:28:03,42.805,6.029,0.02,-0.011,-0.018,105.0,107.0,102.0,13.4,1505.3,326.1,-0.7,1.8,2470.334,13.32,0.022,118.8
2020-02-07T03:31:03,42.805,6.029,0.02,-0.009,0.013,106.0,109.0,103.0,13.4,1505.3,326.4,-0.7,1.8,2470.331,13.32,0.021,114.2
2020-02-07T03:34:03,42.805,6.029,0.028,-0.005,-0.007,107.0,108.0,102.0,13.4,1505.3,325.8,-0.7,1.9,2470.346,13.32,0.028,100.1
2020-02-07T03:37:03,42.805,6.029,0.031,-0.013,-0.021,105.0,106.0,103.0,13.4,1505.3,323.3,-0.7,1.8,2470.333,13.32,0.033,112.7
2020-02-07T03:40:03,42.805,6.029,0.03,-0.022,-0.02,106.0,107.0,102.0,13.3,1505.3,328.1,-0.7,1.8,2470.296,13.32,0.037,126.3
2020-02-07T03:43:03,42.805,6.029,0.037,-0.018,0.02,107.0,108.0,103.0,13.4,1505.3,324.5,-0.7,1.8,2470.36,13.32,0.041,115.9
2020-02-07T03:46:03,42.805,6.029,0.027,-0.042,0.02,108.0,107.0,102.0,13.4,1505.3,327.1,-0.7,1.8,2470.316,13.32,0.049,147.3
2020-02-07T03:49:03,42.805,6.029,0.049,-0.025,-0.031,106.0,107.0,102.0,13.4,1505.3,323.9,-0.7,1.9,2470.338,13.32,0.055,117.0
2020-02-07T03:52:02,42.805,6.029,0.03,-0.023,-0.018,107.0,108.0,103.0,13.3,1505.3,328.6,-0.7,1.8,2470.344,13.32,0.037,127.5
2020-02-07T03:55:03,42.805,6.029,0.045,-0.02,-0.014,107.0,108.0,106.0,13.4,1505.3,323.9,-0.7,1.8,2470.352,13.32,0.049,114.0
2020-02-07T03:58:03,42.805,6.029,0.018,-0.027,0.017,106.0,107.0,103.0,13.3,1505.3,327.1,-0.7,1.8,2470.393,13.32,0.032,146.3
2020-02-07T04:04:03,42.805,6.029,0.034,-0.01,-0.001,106.0,107.0,105.0,13.4,1505.2,327.8,-0.7,1.8,2470.389,13.3,0.035,106.4
2020-02-07T04:07:03,42.805,6.029,0.033,-0.026,-0.026,107.0,108.0,103.0,13.4,1505.3,325.6,-0.7,1.8,2470.366,13.31,0.042,128.2
2020-02-07T04:10:03,42.805,6.029,0.026,-0.004,-0.013,107.0,108.0,103.0,13.4,1505.3,328.1,-0.7,1.8,2470.386,13.32,0.026,98.7
2020-02-07T04:13:03,42.805,6.029,0.033,-0.034,-0.044,105.0,107.0,102.0,13.4,1505.3,328.0,-0.7,1.8,2470.395,13.32,0.047,135.9
2020-02-07T04:16:03,42.805,6.029,0.03,-0.024,-0.04,106.0,106.0,104.0,13.4,1505.3,325.1,-0.7,1.9,2470.363,13.32,0.038,128.7
2020-02-07T04:19:03,42.805,6.029,0.006,-0.018,0.006,105.0,107.0,102.0,13.3,1505.3,325.0,-0.7,1.8,2470.405,13.32,0.018,161.6
2020-02-07T04:22:03,42.805,6.029,0.022,-0.012,0.001,105.0,108.0,101.0,13.4,1505.3,325.7,-0.7,1.8,2470.377,13.32,0.025,118.6
2020-02-07T04:25:03,42.805,6.029,0.037,-0.027,-0.007,104.0,107.0,102.0,13.3,1505.3,326.8,-0.7,1.8,2470.353,13.32,0.045,126.1
2020-02-07T04:28:03,42.805,6.029,0.001,-0.012,-0.019,105.0,106.0,103.0,13.4,1505.3,324.5,-0.7,1.8,2470.389,13.32,0.012,175.2
2020-02-07T04:31:03,42.805,6.029,0.038,-0.022,-0.016,105.0,106.0,104.0,13.3,1505.3,326.5,-0.7,1.8,2470.395,13.32,0.043,120.1
2020-02-07T04:34:03,42.805,6.029,0.029,-0.025,-0.045,105.0,108.0,102.0,13.3,1505.3,328.1,-0.7,1.9,2470.339,13.32,0.038,130.8
2020-02-07T04:37:03,42.805,6.029,0.038,-0.008,0.0,107.0,105.0,101.0,13.4,1505.3,323.7,-0.7,1.8,2470.333,13.32,0.038,101.9
2020-02-07T04:40:02,42.805,6.029,0.037,-0.043,0.016,106.0,106.0,103.0,13.4,1505.3,326.8,-0.7,1.8,2470.361,13.32,0.056,139.3
2020-02-07T04:43:03,42.805,6.029,0.021,-0.023,0.007,106.0,107.0,103.0,13.4,1505.3,325.9,-0.7,1.8,2470.361,13.32,0.031,137.6
2020-02-07T04:46:03,42.805,6.029,0.027,-0.01,0.01,105.0,108.0,103.0,13.4,1505.3,323.3,-0.7,1.8,2470.397,13.32,0.028,110.3
2020-02-07T04:49:03,42.805,6.029,0.022,-0.017,0.019,105.0,105.0,102.0,13.4,1505.3,326.4,-0.7,1.8,2470.416,13.32,0.027,127.7
2020-02-07T04:52:03,42.805,6.029,0.025,-0.018,-0.04,105.0,106.0,102.0,13.4,1505.3,327.2,-0.7,1.8,2470.398,13.32,0.03,125.8
2020-02-07T04:55:03,42.805,6.029,0.038,-0.007,0.0,106.0,108.0,102.0,13.4,1505.3,325.0,-0.7,1.8,2470.41,13.32,0.038,100.4
2020-02-07T04:58:03,42.805,6.029,0.02,-0.028,0.0,104.0,106.0,101.0,13.4,1505.3,328.6,-0.7,1.9,2470.421,13.32,0.034,144.5
2020-02-07T05:04:03,42.805,6.029,0.028,-0.029,-0.01,105.0,106.0,101.0,13.4,1505.2,328.3,-0.7,1.9,2470.464,13.3,0.04,136.0
2020-02-07T05:07:03,42.805,6.029,0.026,-0.023,0.022,105.0,106.0,102.0,13.4,1505.3,323.5,-0.7,1.8,2470.445,13.31,0.034,131.5
2020-02-07T05:10:03,42.805,6.029,0.019,-0.028,-0.021,104.0,106.0,102.0,13.3,1505.3,326.9,-0.7,1.8,2470.438,13.32,0.033,145.8
2020-02-07T05:13:03,42.805,6.029,0.036,-0.027,-0.025,105.0,105.0,102.0,13.4,1505.3,324.5,-0.7,1.9,2470.43,13.32,0.045,126.9
2020-02-07T05:16:03,42.805,6.029,0.007,-0.022,-0.015,105.0,104.0,102.0,13.4,1505.3,324.6,-0.7,1.8,2470.385,13.32,0.023,162.4
2020-02-07T05:19:03,42.805,6.029,0.021,-0.015,0.003,104.0,107.0,102.0,13.3,1505.3,326.2,-0.7,1.8,2470.418,13.32,0.025,125.5
2020-02-07T05:22:03,42.805,6.029,0.017,-0.003,-0.007,106.0,107.0,102.0,13.4,1505.3,328.4,-0.7,1.9,2470.417,13.32,0.017,100.0
2020-02-07T05:25:03,42.805,6.029,0.032,-0.023,-0.031,106.0,105.0,102.0,13.4,1505.3,324.9,-0.7,1.8,2470.457,13.32,0.039,125.7
2020-02-07T05:28:03,42.805,6.029,0.04,-0.013,-0.004,104.0,105.0,101.0,13.4,1505.3,328.2,-0.7,1.8,2470.439,13.32,0.042,108.0
2020-02-07T05:31:03,42.805,6.029,0.046,-0.018,0.01,106.0,106.0,102.0,13.4,1505.3,324.9,-0.7,1.8,2470.438,13.32,0.049,111.4
2020-02-07T05:34:03,42.805,6.029,0.039,-0.01,-0.013,106.0,107.0,101.0,13.4,1505.3,325.6,-0.7,1.8,2470.415,13.32,0.04,104.4
2020-02-07T05:37:03,42.805,6.029,0.049,0.0,-0.009,104.0,105.0,102.0,13.4,1505.3,325.9,-0.7,1.8,2470.436,13.33,0.049,90.0
2020-02-07T05:40:03,42.805,6.029,0.038,0.0,-0.005,106.0,109.0,102.0,13.4,1505.3,328.2,-0.7,1.8,2470.412,13.33,0.038,90.0
2020-02-07T05:43:03,42.805,6.029,0.042,-0.031,-0.006,104.0,107.0,101.0,13.4,1505.3,324.2,-0.7,1.8,2470.435,13.32,0.052,126.4
2020-02-07T05:46:03,42.805,6.029,0.042,-0.017,-0.026,107.0,108.0,101.0,13.4,1505.3,325.4,-0.8,1.8,2470.428,13.32,0.045,112.0
2020-02-07T05:49:03,42.805,6.029,0.023,0.0,-0.013,107.0,108.0,101.0,13.3,1505.3,326.6,-0.7,1.9,2470.416,13.32,0.023,90.0
2020-02-07T05:52:03,42.805,6.029,0.05,-0.025,-0.007,106.0,107.0,103.0,13.4,1505.3,326.8,-0.7,1.9,2470.457,13.32,0.055,116.6
2020-02-07T05:55:03,42.805,6.029,0.055,-0.021,-0.004,105.0,106.0,102.0,13.4,1505.3,325.3,-0.7,1.8,2470.372,13.32,0.058,110.9
2020-02-07T05:58:03,42.805,6.029,0.035,-0.005,-0.023,104.0,106.0,104.0,13.3,1505.3,326.3,-0.7,1.8,2470.441,13.32,0.035,98.1
2020-02-07T06:04:03,42.805,6.029,0.056,-0.013,-0.024,105.0,107.0,101.0,13.4,1505.2,327.5,-0.8,1.8,2470.452,13.3,0.057,103.1
2020-02-07T06:07:02,42.805,6.029,0.033,-0.043,-0.009,105.0,107.0,101.0,13.4,1505.3,327.1,-0.7,1.8,2470.484,13.31,0.054,142.5
2020-02-07T06:10:03,42.805,6.029,0.052,0.0,-0.015,105.0,104.0,103.0,13.4,1505.3,323.8,-0.7,1.8,2470.447,13.32,0.052,90.0
2020-02-07T06:13:03,42.805,6.029,0.037,0.002,0.002,106.0,105.0,102.0,13.4,1505.3,328.6,-0.8,1.8,2470.482,13.32,0.037,86.9
2020-02-07T06:16:03,42.805,6.029,0.007,-0.016,0.025,106.0,105.0,102.0,13.4,1505.3,325.8,-0.7,1.8,2470.437,13.32,0.017,156.4
2020-02-07T06:19:03,42.805,6.029,0.024,-0.02,-0.012,105.0,106.0,101.0,13.4,1505.3,324.6,-0.7,1.8,2470.458,13.32,0.031,129.8
2020-02-07T06:22:03,42.805,6.029,0.037,-0.014,0.006,104.0,109.0,102.0,13.4,1505.3,327.1,-0.7,1.8,2470.427,13.32,0.039,110.7
2020-02-07T06:25:03,42.805,6.029,0.019,-0.004,-0.028,105.0,109.0,102.0,13.4,1505.3,328.1,-0.7,1.8,2470.423,13.32,0.019,101.9
2020-02-07T06:28:03,42.805,6.029,0.05,-0.016,0.018,103.0,107.0,100.0,13.3,1505.3,326.5,-0.7,1.8,2470.44,13.32,0.052,107.7
2020-02-07T06:31:03,42.805,6.029,0.051,-0.014,-0.011,106.0,107.0,103.0,13.4,1505.3,323.7,-0.7,1.8,2470.421,13.32,0.052,105.3
2020-02-07T06:34:03,42.805,6.029,0.013,-0.015,-0.031,104.0,108.0,102.0,13.4,1505.3,328.2,-0.7,1.8,2470.405,13.32,0.019,139.1
2020-02-07T06:37:03,42.805,6.029,0.032,-0.017,-0.002,105.0,108.0,101.0,13.4,1505.3,326.3,-0.7,1.8,2470.416,13.32,0.036,118.0
2020-02-07T06:40:03,42.805,6.029,0.065,-0.004,0.004,105.0,107.0,102.0,13.3,1505.3,325.3,-0.7,1.8,2470.41,13.32,0.065,93.5
2020-02-07T06:43:03,42.805,6.029,0.015,-0.016,-0.04,105.0,107.0,101.0,13.3,1505.3,328.2,-0.7,1.9,2470.429,13.32,0.021,136.9
2020-02-07T06:46:03,42.805,6.029,0.057,-0.017,-0.008,106.0,106.0,102.0,13.4,1505.3,326.7,-0.7,1.8,2470.448,13.32,0.059,106.6
2020-02-07T06:49:03,42.805,6.029,0.035,-0.001,-0.011,106.0,108.0,102.0,13.4,1505.3,324.6,-0.7,1.8,2470.411,13.32,0.035,91.6
2020-02-07T06:52:03,42.805,6.029,0.038,-0.009,0.003,106.0,107.0,102.0,13.3,1505.3,324.9,-0.7,1.8,2470.439,13.32,0.039,103.3
2020-02-07T06:55:03,42.805,6.029,0.034,-0.026,-0.021,105.0,108.0,102.0,13.3,1505.3,323.8,-0.7,1.8,2470.424,13.32,0.042,127.4
2020-02-07T06:58:03,42.805,6.029,0.032,0.009,-0.008,104.0,107.0,101.0,13.3,1505.3,324.9,-0.7,1.8,2470.418,13.32,0.033,74.3
2020-02-07T07:04:03,42.805,6.029,0.029,-0.025,-0.014,104.0,108.0,102.0,13.4,1505.2,328.6,-0.7,1.8,2470.458,13.3,0.038,130.8
2020-02-07T07:07:03,42.805,6.029,0.032,-0.021,0.034,106.0,107.0,102.0,13.3,1505.3,326.3,-0.7,1.9,2470.446,13.31,0.038,123.3
2020-02-07T07:10:03,42.805,6.029,0.034,-0.017,0.011,105.0,108.0,102.0,13.4,1505.3,325.4,-0.7,1.8,2470.433,13.31,0.038,116.6
2020-02-07T07:13:03,42.805,6.029,0.039,-0.02,0.011,105.0,107.0,102.0,13.3,1505.3,323.9,-0.7,1.8,2470.44,13.32,0.043,117.1
2020-02-07T07:16:03,42.805,6.029,0.053,-0.027,0.008,107.0,107.0,102.0,13.3,1505.3,326.2,-0.7,1.8,2470.431,13.32,0.059,117.0
2020-02-07T07:19:03,42.805,6.029,0.035,-0.001,0.003,105.0,106.0,102.0,13.3,1505.3,326.8,-0.7,1.8,2470.449,13.32,0.035,91.6
2020-02-07T07:22:03,42.805,6.029,0.017,0.009,-0.018,105.0,109.0,102.0,13.4,1505.3,324.5,-0.7,1.8,2470.422,13.32,0.019,62.1
2020-02-07T07:25:03,42.805,6.029,0.067,0.003,0.0,105.0,108.0,102.0,13.4,1505.3,324.9,-0.7,1.8,2470.428,13.32,0.067,87.4
2020-02-07T07:28:03,42.805,6.029,0.01,-0.007,0.0,107.0,108.0,102.0,13.4,1505.3,328.2,-0.7,1.8,2470.423,13.32,0.012,125.0
2020-02-07T07:31:03,42.805,6.029,0.038,-0.015,-0.002,106.0,107.0,103.0,13.4,1505.3,324.9,-0.7,1.8,2470.405,13.32,0.04,111.5
2020-02-07T07:34:03,42.805,6.029,0.044,-0.018,-0.004,107.0,111.0,103.0,13.4,1505.3,323.5,-0.7,1.8,2470.399,13.32,0.047,112.2
2020-02-07T07:37:03,42.805,6.029,0.042,-0.031,-0.012,104.0,107.0,103.0,13.3,1505.3,323.3,-0.7,1.8,2470.394,13.32,0.052,126.4
2020-02-07T07:40:03,42.805,6.029,0.034,-0.019,-0.029,105.0,108.0,102.0,13.3,1505.3,327.0,-0.7,1.8,2470.414,13.32,0.038,119.2
2020-02-07T07:43:03,42.805,6.029,0.038,-0.011,-0.023,106.0,108.0,102.0,13.4,1505.3,326.5,-0.7,1.8,2470.411,13.32,0.039,106.1
2020-02-07T07:46:03,42.805,6.029,0.07,-0.009,0.0,105.0,107.0,104.0,13.4,1505.3,326.8,-0.7,1.8,2470.434,13.32,0.07,97.3
2020-02-07T07:49:03,42.805,6.029,0.022,-0.005,0.014,106.0,108.0,103.0,13.4,1505.3,328.4,-0.7,1.8,2470.437,13.32,0.022,102.8
2020-02-07T07:52:03,42.805,6.029,0.043,-0.012,-0.037,106.0,108.0,102.0,13.4,1505.3,325.0,-0.7,1.8,2470.356,13.32,0.044,105.6
2020-02-07T07:55:03,42.805,6.029,0.05,0.002,0.025,106.0,109.0,102.0,13.4,1505.3,326.4,-0.7,1.8,2470.412,13.32,0.05,87.7
2020-02-07T07:58:03,42.805,6.029,0.042,0.002,-0.029,106.0,108.0,102.0,13.4,1505.3,323.3,-0.7,1.9,2470.384,13.32,0.042,87.3
2020-02-07T08:04:03,42.805,6.029,0.034,-0.019,0.005,106.0,106.0,103.0,13.4,1505.2,327.0,-0.8,1.8,2470.39,13.3,0.038,119.2
2020-02-07T08:07:03,42.805,6.029,0.036,-0.004,-0.016,106.0,107.0,102.0,13.4,1505.3,324.2,-0.7,1.8,2470.405,13.31,0.036,96.3
2020-02-07T08:10:03,42.805,6.029,0.041,-0.02,-0.009,106.0,109.0,102.0,13.3,1505.3,326.1,-0.7,1.8,2470.406,13.32,0.045,116.0
2020-02-07T08:13:03,42.805,6.029,0.045,-0.004,-0.01,106.0,109.0,102.0,13.3,1505.3,323.4,-0.7,1.8,2470.416,13.32,0.045,95.1
2020-02-07T08:16:03,42.805,6.029,0.052,0.003,0.006,108.0,109.0,102.0,13.4,1505.3,325.7,-0.7,1.9,2470.4,13.32,0.052,86.7
2020-02-07T08:19:03,42.805,6.029,0.047,-0.003,0.0,107.0,108.0,102.0,13.4,1505.3,328.0,-0.7,1.8,2470.385,13.32,0.047,93.6
2020-02-07T08:22:03,42.805,6.029,0.023,0.0,-0.027,108.0,108.0,103.0,13.4,1505.3,325.1,-0.7,1.8,2470.373,13.32,0.023,90.0
2020-02-07T08:25:03,42.805,6.029,0.018,-0.014,0.012,107.0,107.0,102.0,13.3,1505.3,323.2,-0.7,1.8,2470.377,13.32,0.022,127.9
2020-02-07T08:28:03,42.805,6.029,0.041,-0.031,-0.028,106.0,107.0,102.0,13.4,1505.3,328.5,-0.7,1.8,2470.356,13.32,0.051,127.1
2020-02-07T08:31:03,42.805,6.029,0.025,-0.016,-0.028,106.0,107.0,103.0,13.4,1505.3,325.0,-0.7,1.8,2470.372,13.32,0.029,122.6
2020-02-07T08:34:03,42.805,6.029,0.045,-0.017,-0.033,106.0,109.0,103.0,13.4,1505.3,323.8,-0.7,1.9,2470.317,13.32,0.048,110.7
2020-02-07T08:37:03,42.805,6.029,0.039,-0.013,-0.011,107.0,108.0,102.0,13.4,1505.3,327.8,-0.7,1.8,2470.383,13.32,0.041,108.4
2020-02-07T08:40:03,42.805,6.029,0.062,-0.027,-0.009,106.0,107.0,103.0,13.4,1505.3,324.5,-0.7,1.9,2470.354,13.32,0.067,113.5
2020-02-07T08:43:03,42.805,6.029,0.044,-0.026,-0.006,105.0,109.0,103.0,13.3,1505.3,327.8,-0.7,1.9,2470.422,13.32,0.051,120.6
2020-02-07T08:46:03,42.805,6.029,0.041,-0.024,-0.014,105.0,108.0,102.0,13.4,1505.3,325.8,-0.7,1.8,2470.374,13.32,0.047,120.3
2020-02-07T08:49:03,42.805,6.029,0.045,-0.017,0.003,107.0,107.0,102.0,13.4,1505.3,324.2,-0.7,1.8,2470.362,13.32,0.048,110.7
2020-02-07T08:52:03,42.805,6.029,0.052,-0.035,0.0,106.0,106.0,102.0,13.4,1505.3,326.8,-0.7,1.8,2470.361,13.32,0.062,123.9
2020-02-07T08:55:03,42.805,6.029,0.022,-0.015,0.007,107.0,107.0,102.0,13.4,1505.3,328.3,-0.7,1.8,2470.393,13.32,0.026,124.3
2020-02-07T08:58:03,42.805,6.029,0.053,0.011,-0.006,107.0,109.0,103.0,13.3,1505.3,326.0,-0.7,1.9,2470.361,13.32,0.054,78.3
2020-02-07T09:04:03,42.805,6.029,0.032,-0.015,0.005,106.0,108.0,103.0,13.3,1505.2,325.0,-0.8,1.8,2470.411,13.3,0.035,115.1
2020-02-07T09:07:03,42.805,6.029,0.026,-0.015,-0.017,107.0,107.0,102.0,13.4,1505.3,326.3,-0.7,1.8,2470.375,13.31,0.03,120.0
2020-02-07T09:10:03,42.805,6.029,0.048,-0.02,-0.005,106.0,108.0,103.0,13.4,1505.3,325.3,-0.7,1.8,2470.351,13.32,0.052,112.6
2020-02-07T09:13:03,42.805,6.029,0.032,-0.018,-0.005,106.0,107.0,104.0,13.3,1505.3,328.1,-0.7,1.8,2470.372,13.32,0.036,119.4
2020-02-07T09:16:03,42.805,6.029,0.017,-0.011,-0.047,107.0,109.0,102.0,13.4,1505.3,326.6,-0.7,1.8,2470.334,13.32,0.02,122.9
2020-02-07T09:19:03,42.805,6.029,0.059,-0.016,0.022,105.0,108.0,102.0,13.4,1505.3,323.1,-0.7,1.8,2470.397,13.32,0.061,105.2
2020-02-07T09:22:03,42.805,6.029,0.043,-0.028,-0.009,106.0,108.0,102.0,13.4,1505.3,327.4,-0.7,1.8,2470.393,13.32,0.051,123.1
2020-02-07T09:25:03,42.805,6.029,0.039,-0.01,-0.012,107.0,106.0,103.0,13.4,1505.3,323.1,-0.7,1.8,2470.342,13.32,0.04,104.4
2020-02-07T09:28:03,42.805,6.029,0.024,-0.021,-0.006,107.0,107.0,103.0,13.4,1505.3,327.9,-0.7,1.9,2470.355,13.32,0.031,131.2
2020-02-07T09:31:03,42.805,6.029,0.053,-0.022,0.006,107.0,107.0,102.0,13.3,1505.3,327.3,-0.7,1.8,2470.313,13.32,0.057,112.5
2020-02-07T09:34:03,42.805,6.029,0.038,-0.011,0.029,106.0,108.0,103.0,13.4,1505.3,323.5,-0.7,1.8,2470.355,13.32,0.039,106.1
2020-02-07T09:37:03,42.805,6.029,0.066,-0.008,0.008,107.0,108.0,102.0,13.4,1505.3,327.8,-0.7,1.8,2470.358,13.32,0.066,96.9
2020-02-07T09:40:03,42.805,6.029,0.047,0.002,0.014,107.0,106.0,102.0,13.4,1505.3,324.8,-0.7,1.8,2470.298,13.32,0.047,87.6
2020-02-07T09:43:03,42.805,6.029,0.048,-0.01,0.017,106.0,106.0,102.0,13.4,1505.3,327.2,-0.7,1.9,2470.345,13.32,0.049,101.8
2020-02-07T09:46:03,42.805,6.029,0.038,-0.02,-0.004,107.0,107.0,103.0,13.3,1505.3,324.2,-0.7,1.8,2470.332,13.32,0.042,117.8
2020-02-07T09:49:03,42.805,6.029,0.047,-0.016,0.017,108.0,109.0,102.0,13.4,1505.3,322.9,-0.7,1.8,2470.362,13.32,0.049,108.8
2020-02-07T09:52:03,42.805,6.029,0.057,-0.018,0.008,107.0,107.0,102.0,13.4,1505.3,327.8,-0.7,1.8,2470.334,13.32,0.059,107.5
2020-02-07T09:55:03,42.805,6.029,0.028,-0.03,0.004,107.0,109.0,103.0,13.3,1505.3,327.0,-0.7,1.8,2470.338,13.32,0.041,137.0
2020-02-07T09:58:03,42.805,6.029,0.018,-0.015,-0.03,107.0,108.0,102.0,13.4,1505.3,325.7,-0.7,1.8,2470.326,13.32,0.023,129.8
2020-02-07T10:04:03,42.805,6.029,0.051,-0.027,0.0,105.0,107.0,102.0,13.4,1505.2,323.1,-0.7,1.8,2470.373,13.3,0.057,117.9